Cloud_Cover
1 0 24 57 96 100 100 100 100 100 100 100 76 76 88 24 7 5 5 5 5 5 0 0 0 0 0 0 0 0 0 0 0 0 0 0 0 0 0 0 0 0 3 0
22 100 97 91 100 100 100 100 100 100 100 100 100 100 100 100 20 12 28 5 0 0 0 0 0 0 0 0 0 0 0 0 0 0 0 0 0 0 0 0 0 0 0 5
100 100 100 100 100 100 100 100 86 68 20 30 100 100 100 40 3 0 0 0 0 0 0 0 0 0 0 0 0 0 0 0 0 0 0 0 0 0 0 0 0 0 0 0
3 45 100 97 100 100 100 100 100 100 97 62 17 7 0 0 0 0 0 0 0 0 0 0 0 0 0 0 0 0 0 0 0 0 0 0 0 0 0 0 0 8 0 23
5 9 39 100 93 28 61 91 70 5 2 1 0 6 0 0 0 0 0 0 0 0 0 0 0 0 0 0 0 0 0 0 0 0 0 0 0 0 0 0 0 33 32 73
100 100 91 100 88 81 4 0 0 0 3 46 0 1 0 0 0 0 0 0 0 0 0 0 0 0 0 0 0 0 0 0 0 0 0 0 0 0 0 0 0 61 30 38
89 76 99 66 5 0 0 74 58 33 65 2 1 2 0 0 0 0 0 0 0 0 0 0 0 0 0 0 0 0 0 0 0 0 0 0 0 0 0 6 2 8 80 100
13 0 0 0 0 0 0 0 1 0 0 0 0 1 0 0 0 0 0 0 0 0 0 0 0 0 0 0 0 0 0 0 0 0 0 0 0 0 51 78 42 5 5 6
0 0 0 0 0 0 0 0 0 1 0 0 0 0 0 0 0 0 0 0 0 0 0 0 0 0 0 0 0 5 46 5 5 4 0 1 2 16 8 100 100 10 6 82
0 0 0 0 0 0 0 0 0 0 2 0 0 0 0 0 0 0 0 0 0 0 0 0 0 0 13 48 81 50 1 3 18 100 100 100 100 55 96 100 100 82 82 67
0 0 0 0 0 0 0 0 0 0 0 0 0 1 0 0 0 0 0 0 0 0 0 0 0 9 32 100 100 100 100 100 100 100 100 100 100 100 100 100 100 100 78 100
0 0 0 0 0 0 0 0 0 0 0 0 0 0 0 0 2 1 0 0 0 42 68 66 97 70 56 100 100 100 100 100 100 94 100 100 100 100 100 100 100 100 100 100
0 0 2 1 1 0 0 0 0 0 0 0 0 3 0 4 4 0 2 2 5 88 100 92 92 93 95 99 100 100 100 100 98 48 5 24 58 100 72 50 87 100 96 100
0 0 0 2 0 2 3 5 5 5 5 4 1 4 0 0 3 4 2 0 0 0 0 2 5 5 5 6 6 5 5 5 42 49 18 65 90 100 100 78 93 91 58 99
0 0 0 0 0 0 0 1 1 5 40 2 4 5 94 7 12 10 5 5 4 1 4 85 98 6 5 5 5 5 5 5 5 5 9 8 20 14 5 20 37 34 6 26
2 0 0 0 0 1 0 0 0 0 0 3 1 3 100 100 100 100 100 91 36 5 11 6 94 69 11 5 88 100 11 7 6 8 10 5 15 59 100 96 81 92 73 89
5 5 5 5 5 5 8 5 4 5 5 5 16 9 7 45 100 100 88 72 70 73 34 100 100 100 100 99 97 91 38 5 9 15 77 6 5 28 36 9 5 29 39 19
7 17 96 93 5 10 16 7 5 46 78 67 82 74 57 58 93 50 5 15 41 73 83 80 66 62 57 100 79 5 86 92 68 89 77 86 5 5 17 19 5 34 74 98
83 62 36 44 56 82 83 35 68 6 5 53 97 100 100 100 99 100 32 57 90 75 5 8 12 86 66 67 33 15 94 100 100 100 100 100 94 28 5 5 5 31 76 100
100 100 62 63 32 55 100 100 94 38 5 28 5 5 77 70 9 100 82 48 67 70 8 5 5 5 5 18 27 94 100 100 99 92 100 100 100 97 100 100 75 73 98 57
100 96 57 95 80 31 100 100 71 61 17 5 8 81 100 96 34 5 80 100 82 37 43 10 5 54 10 5 5 5 5 13 20 90 100 100 100 100 100 100 100 100 100 100
100 91 96 99 83 71 100 100 81 5 5 36 95 100 100 97 44 100 75 34 53 93 58 39 63 89 79 61 56 65 98 94 97 100 100 100 100 100 100 100 100 100 100 100
54 100 98 100 100 98 15 5 5 5 5 7 20 99 11 9 66 100 100 100 100 100 100 100 100 100 71 24 5 44 77 100 100 100 100 100 100 100 100 100 33 14 99 34
100 100 100 100 94 99 90 9 12 70 64 71 67 67 5 5 5 6 12 72 92 47 57 77 44 5 69 18 5 4 5 37 84 94 90 75 11 72 24 5 5 24 100 96
100 100 100 100 100 100 72 40 57 45 100 93 68 44 74 25 1 0 4 5 5 12 32 5 5 44 50 18 8 7 5 4 0 0 0 2 3 0 2 5 5 6 71 51
100 100 100 21 56 56 76 100 100 97 97 96 48 34 14 5 5 5 35 88 93 84 85 67 88 90 82 95 99 94 85 89 4 3 0 0 1 4 1 5 5 5 5 5